EJU14AC LFRS-LPMA

Flight info

Callsign EJU14AC
Flight time N/A
Altitude 35000
Route ERIGA UN741 AZFIC DCT GATMO DCT LOTEE DCT PINEK DCT MARUM DCT RAKUN
Aircraft A320/M-SDE3FGHIRWY/LB1

Departure

Time 2026-05-05 14:44
Airport Nantes Atlantique Airport (LFRS)

Arrival

Time N/A
Airport Cristiano Ronaldo International Airport (LPMA)
Time Latitude Longitude Altitude Speed Heading
2026-05-05 14:12 47.15767 -1.60341 145 ft 0 kts 127°
2026-05-05 14:37 47.15779 -1.60363 91 ft 4 kts 127°
2026-05-05 14:38 47.15792 -1.60388 89 ft 4 kts 121°
2026-05-05 14:38 47.15800 -1.60422 92 ft 4 kts 77°
2026-05-05 14:38 47.15787 -1.60447 90 ft 4 kts 27°
2026-05-05 14:38 47.15775 -1.60456 90 ft 0 kts 27°
2026-05-05 14:41 47.15782 -1.60451 89 ft 3 kts 27°
2026-05-05 14:41 47.15812 -1.60428 90 ft 7 kts 27°
2026-05-05 14:41 47.15864 -1.60388 90 ft 10 kts 27°
2026-05-05 14:41 47.15939 -1.60331 90 ft 14 kts 27°
2026-05-05 14:42 47.16032 -1.60260 92 ft 17 kts 27°
2026-05-05 14:42 47.16143 -1.60176 89 ft 19 kts 27°
2026-05-05 14:42 47.16265 -1.60084 91 ft 20 kts 27°
2026-05-05 14:42 47.16398 -1.60080 85 ft 21 kts 343°
2026-05-05 14:43 47.16458 -1.60183 85 ft 6 kts 280°
2026-05-05 14:43 47.16456 -1.60206 87 ft 0 kts 252°
2026-05-05 14:43 47.16452 -1.60212 87 ft 1 kts 221°
2026-05-05 14:43 47.16419 -1.60234 89 ft 13 kts 206°
2026-05-05 14:44 47.16152 -1.60437 86 ft 79 kts 207°
2026-05-05 14:44 47.15475 -1.60953 90 ft 137 kts 207°
2026-05-05 14:44 47.14495 -1.61701 205 ft 172 kts 212°
2026-05-05 14:44 47.13447 -1.62491 985 ft 168 kts 211°
2026-05-05 14:45 47.12406 -1.63276 1780 ft 167 kts 212°
2026-05-05 14:45 47.11539 -1.64327 2471 ft 160 kts 246°
2026-05-05 14:45 47.11299 -1.65871 3115 ft 155 kts 279°
2026-05-05 14:45 47.11486 -1.67457 3622 ft 166 kts 281°
2026-05-05 14:46 47.11294 -1.69228 3869 ft 192 kts 248°
2026-05-05 14:46 47.10633 -1.71070 4031 ft 217 kts 245°
2026-05-05 14:46 47.09867 -1.73123 4296 ft 241 kts 244°
2026-05-05 14:46 47.09021 -1.75367 4772 ft 258 kts 244°
2026-05-05 14:47 47.08142 -1.77688 5549 ft 262 kts 243°
2026-05-05 14:47 47.07249 -1.80047 6386 ft 266 kts 243°
2026-05-05 14:47 47.06349 -1.82437 7156 ft 270 kts 243°
2026-05-05 14:47 47.05435 -1.84864 7929 ft 273 kts 244°
2026-05-05 14:48 47.04514 -1.87314 8697 ft 276 kts 243°
2026-05-05 14:48 47.03581 -1.89794 9498 ft 279 kts 243°
2026-05-05 14:48 47.02638 -1.92306 10158 ft 287 kts 243°
2026-05-05 14:48 47.01642 -1.94966 10355 ft 309 kts 243°
2026-05-05 14:49 47.00573 -1.97822 10674 ft 326 kts 243°
2026-05-05 14:49 46.99470 -2.00761 11301 ft 332 kts 242°
2026-05-05 14:49 46.98353 -2.03733 11982 ft 335 kts 242°
2026-05-05 14:49 46.97218 -2.06746 12570 ft 341 kts 242°
2026-05-05 14:50 46.96061 -2.09811 13193 ft 346 kts 242°
2026-05-05 14:50 46.94900 -2.12871 13805 ft 350 kts 242°
2026-05-05 14:50 46.93710 -2.16003 14368 ft 354 kts 242°
2026-05-05 14:50 46.92511 -2.19164 14947 ft 357 kts 242°
2026-05-05 14:51 46.91303 -2.22356 15535 ft 360 kts 241°
2026-05-05 14:51 46.90083 -2.25574 16112 ft 363 kts 242°
2026-05-05 14:51 46.88852 -2.28819 16684 ft 367 kts 241°
2026-05-05 14:51 46.87607 -2.32090 17255 ft 370 kts 241°
2026-05-05 14:52 46.86348 -2.35385 17820 ft 373 kts 241°
2026-05-05 14:52 46.85074 -2.38702 18345 ft 376 kts 240°
2026-05-05 14:52 46.83770 -2.42040 18820 ft 380 kts 240°
2026-05-05 14:52 46.82447 -2.45392 19287 ft 383 kts 240°
2026-05-05 14:53 46.81104 -2.48779 19706 ft 387 kts 239°
2026-05-05 14:53 46.79745 -2.52200 20126 ft 392 kts 239°
2026-05-05 14:53 46.78375 -2.55652 20599 ft 394 kts 239°
2026-05-05 14:53 46.76996 -2.59125 21050 ft 397 kts 239°
2026-05-05 14:54 46.75606 -2.62630 21445 ft 401 kts 239°
2026-05-05 14:54 46.74205 -2.66162 21911 ft 404 kts 239°
2026-05-05 14:54 46.72796 -2.69710 22389 ft 405 kts 238°
2026-05-05 14:54 46.71379 -2.73274 22811 ft 408 kts 238°
2026-05-05 14:55 46.69948 -2.76868 23253 ft 411 kts 238°
2026-05-05 14:55 46.68511 -2.80474 23649 ft 413 kts 238°
2026-05-05 14:55 46.67060 -2.84108 23989 ft 416 kts 238°
2026-05-05 14:55 46.65598 -2.87765 24297 ft 420 kts 238°
2026-05-05 14:56 46.64123 -2.91449 24603 ft 423 kts 238°
2026-05-05 14:56 46.62634 -2.95163 24897 ft 427 kts 238°
2026-05-05 14:56 46.61130 -2.98907 25190 ft 430 kts 238°
2026-05-05 14:56 46.59614 -3.02677 25476 ft 434 kts 238°
2026-05-05 14:57 46.58600 -3.05190 25672 ft 436 kts 237°
2026-05-05 14:57 46.56832 -3.08768 25948 ft 436 kts 225°
2026-05-05 14:57 46.54732 -3.11969 26223 ft 439 kts 224°
2026-05-05 14:57 46.52614 -3.15186 26517 ft 442 kts 224°
2026-05-05 14:58 46.50485 -3.18425 26834 ft 445 kts 224°
2026-05-05 14:58 46.48343 -3.21684 27120 ft 448 kts 223°
2026-05-05 14:58 46.46184 -3.24959 27399 ft 451 kts 223°
2026-05-05 14:58 46.44004 -3.28248 27670 ft 454 kts 223°
2026-05-05 14:59 46.41804 -3.31555 27938 ft 457 kts 223°
2026-05-05 14:59 46.39584 -3.34876 28195 ft 461 kts 223°
2026-05-05 14:59 46.37345 -3.38223 28458 ft 464 kts 222°
2026-05-05 14:59 46.35095 -3.41586 28723 ft 467 kts 222°
2026-05-05 15:00 46.32829 -3.44977 28975 ft 470 kts 222°
2026-05-05 15:00 46.30551 -3.48391 29261 ft 472 kts 223°
2026-05-05 15:00 46.28270 -3.51806 29608 ft 473 kts 223°
2026-05-05 15:00 46.25979 -3.55224 29885 ft 475 kts 223°
2026-05-05 15:01 46.23671 -3.58655 30109 ft 477 kts 222°
2026-05-05 15:01 46.21356 -3.62091 30368 ft 477 kts 223°
2026-05-05 15:01 46.19042 -3.65531 30646 ft 477 kts 223°
2026-05-05 15:01 46.16734 -3.68962 31011 ft 475 kts 223°
2026-05-05 15:02 46.14438 -3.72367 31404 ft 472 kts 224°
2026-05-05 15:02 46.12153 -3.75747 31807 ft 469 kts 224°
2026-05-05 15:02 46.09882 -3.79101 32209 ft 466 kts 224°
2026-05-05 15:02 46.07636 -3.82420 32694 ft 461 kts 225°
2026-05-05 15:03 46.05402 -3.85715 33062 ft 459 kts 225°
2026-05-05 15:03 46.03167 -3.88993 33401 ft 457 kts 224°
2026-05-05 15:03 46.00942 -3.92253 33726 ft 456 kts 225°
2026-05-05 15:03 45.98724 -3.95506 34050 ft 454 kts 225°
2026-05-05 15:04 45.96517 -3.98743 34352 ft 452 kts 225°
2026-05-05 15:04 45.94316 -4.01970 34586 ft 452 kts 226°
2026-05-05 15:04 45.92117 -4.05197 34809 ft 452 kts 226°
2026-05-05 15:04 45.89920 -4.08414 34933 ft 451 kts 226°
2026-05-05 15:05 45.83383 -4.17955 34964 ft 445 kts 225°
2026-05-05 15:06 45.79034 -4.24274 34966 ft 445 kts 225°
2026-05-05 15:06 45.74679 -4.30564 34970 ft 445 kts 226°
2026-05-05 15:07 45.70324 -4.36846 34967 ft 445 kts 226°
2026-05-05 15:07 45.65975 -4.43128 34973 ft 444 kts 226°
2026-05-05 15:08 45.61629 -4.49399 34971 ft 444 kts 226°
2026-05-05 15:08 45.57302 -4.55614 34969 ft 444 kts 225°
2026-05-05 15:09 45.52948 -4.61861 34971 ft 444 kts 225°
2026-05-05 15:09 45.48590 -4.68093 34970 ft 444 kts 226°
2026-05-05 15:10 45.44220 -4.74321 34964 ft 444 kts 226°
2026-05-05 15:10 45.39847 -4.80551 34963 ft 445 kts 226°
2026-05-05 15:11 45.35466 -4.86771 34970 ft 445 kts 226°
2026-05-05 15:11 45.31084 -4.92988 34971 ft 445 kts 225°
2026-05-05 15:12 45.26690 -4.99195 34977 ft 445 kts 226°
2026-05-05 15:12 45.22295 -5.05387 34975 ft 445 kts 227°
2026-05-05 15:13 45.17893 -5.11572 34976 ft 446 kts 226°
2026-05-05 15:13 45.13487 -5.17755 34978 ft 446 kts 226°
2026-05-05 15:14 45.09081 -5.23930 34984 ft 446 kts 226°
2026-05-05 15:14 45.04668 -5.30091 34989 ft 446 kts 226°
2026-05-05 15:15 45.00254 -5.36230 34990 ft 445 kts 226°
2026-05-05 15:15 44.95845 -5.42372 34992 ft 445 kts 226°
2026-05-05 15:16 44.91462 -5.48464 34994 ft 445 kts 226°
2026-05-05 15:16 44.87009 -5.54619 34998 ft 445 kts 226°
2026-05-05 15:17 44.82587 -5.60721 35001 ft 445 kts 226°
2026-05-05 15:17 44.78199 -5.66766 35011 ft 444 kts 226°
2026-05-05 15:18 44.73779 -5.72837 35000 ft 444 kts 226°
2026-05-05 15:18 44.69362 -5.78895 35004 ft 444 kts 226°
2026-05-05 15:19 44.64826 -5.84779 35008 ft 445 kts 218°
2026-05-05 15:19 44.59850 -5.89967 35008 ft 446 kts 218°
2026-05-05 15:20 44.54864 -5.95139 35012 ft 446 kts 218°
2026-05-05 15:20 44.49877 -6.00305 35013 ft 446 kts 218°
2026-05-05 15:21 44.44890 -6.05470 35010 ft 446 kts 218°
2026-05-05 15:21 44.39902 -6.10619 35004 ft 446 kts 219°
2026-05-05 15:22 44.34905 -6.15760 35013 ft 446 kts 219°
2026-05-05 15:22 44.29908 -6.20892 35020 ft 446 kts 219°
2026-05-05 15:23 44.24901 -6.26021 35015 ft 446 kts 219°
2026-05-05 15:23 44.19896 -6.31136 35022 ft 446 kts 219°
2026-05-05 15:24 44.14894 -6.36248 35023 ft 446 kts 219°
2026-05-05 15:24 44.09892 -6.41347 35034 ft 446 kts 219°
2026-05-05 15:25 44.04889 -6.46435 35033 ft 445 kts 219°
2026-05-05 15:25 43.99887 -6.51514 35013 ft 445 kts 220°
2026-05-05 15:26 43.94882 -6.56578 35027 ft 445 kts 219°
2026-05-05 15:26 43.89872 -6.61627 35034 ft 445 kts 219°
2026-05-05 15:27 43.84863 -6.66672 35040 ft 445 kts 220°
2026-05-05 15:27 43.79860 -6.71715 35044 ft 445 kts 220°
2026-05-05 15:28 43.74862 -6.76744 35051 ft 444 kts 220°
2026-05-05 15:28 43.69850 -6.81751 35058 ft 444 kts 220°
2026-05-05 15:29 43.64878 -6.86712 35041 ft 444 kts 220°
2026-05-05 15:29 43.59875 -6.91715 35034 ft 444 kts 220°
2026-05-05 15:30 43.54870 -6.96708 35048 ft 444 kts 220°
2026-05-05 15:30 43.49861 -7.01686 35061 ft 444 kts 220°
2026-05-05 15:31 43.44850 -7.06647 35061 ft 443 kts 220°
2026-05-05 15:31 43.39835 -7.11591 35044 ft 443 kts 220°
2026-05-05 15:32 43.34826 -7.16531 35056 ft 443 kts 220°
2026-05-05 15:32 43.29826 -7.21465 35064 ft 443 kts 220°
2026-05-05 15:33 43.24820 -7.26385 35045 ft 443 kts 221°
2026-05-05 15:33 43.19809 -7.31294 35051 ft 443 kts 221°
2026-05-05 15:34 43.14799 -7.36199 35056 ft 442 kts 221°
2026-05-05 15:34 43.09827 -7.41055 35063 ft 442 kts 221°
2026-05-05 15:35 43.04821 -7.45938 35061 ft 442 kts 221°
2026-05-05 15:35 42.99815 -7.50814 35064 ft 442 kts 221°
2026-05-05 15:36 42.94812 -7.55675 35064 ft 441 kts 221°
2026-05-05 15:36 42.89804 -7.60524 35062 ft 441 kts 222°
2026-05-05 15:37 42.84801 -7.65370 35051 ft 440 kts 222°
2026-05-05 15:37 42.79801 -7.70185 35062 ft 440 kts 222°
2026-05-05 15:38 42.74801 -7.74998 35034 ft 440 kts 222°
2026-05-05 15:38 42.69812 -7.79796 35066 ft 439 kts 222°
2026-05-05 15:39 42.64832 -7.84572 35073 ft 438 kts 221°
2026-05-05 15:39 42.59861 -7.89336 35075 ft 437 kts 221°
2026-05-05 15:40 42.54928 -7.94061 35083 ft 437 kts 221°
2026-05-05 15:40 42.49956 -7.98798 35080 ft 437 kts 221°
2026-05-05 15:41 42.44981 -8.03524 35075 ft 436 kts 221°
2026-05-05 15:41 42.40011 -8.08241 35076 ft 436 kts 221°
2026-05-05 15:42 42.35038 -8.12946 35071 ft 436 kts 221°
2026-05-05 15:42 42.30074 -8.17653 35062 ft 436 kts 221°
2026-05-05 15:43 42.25114 -8.22345 35075 ft 435 kts 221°
2026-05-05 15:43 42.20159 -8.27010 35077 ft 434 kts 221°
2026-05-05 15:44 42.15207 -8.31665 35075 ft 433 kts 221°
2026-05-05 15:44 42.10263 -8.36304 35053 ft 433 kts 221°
2026-05-05 15:45 42.05329 -8.40927 35065 ft 431 kts 221°
2026-05-05 15:45 42.00409 -8.45523 35077 ft 430 kts 221°
2026-05-05 15:46 41.96329 -8.49327 35080 ft 429 kts 221°
2026-05-05 15:46 41.90630 -8.54639 35085 ft 429 kts 221°
2026-05-05 15:47 41.86533 -8.58462 35071 ft 428 kts 221°
2026-05-05 15:47 41.81694 -8.63086 35083 ft 426 kts 223°
2026-05-05 15:48 41.77012 -8.67908 35089 ft 423 kts 224°
2026-05-05 15:48 41.72392 -8.72706 35064 ft 423 kts 223°
2026-05-05 15:49 41.67685 -8.77501 35075 ft 422 kts 223°
2026-05-05 15:49 41.63027 -8.82189 35071 ft 421 kts 222°
2026-05-05 15:50 41.58352 -8.86890 35083 ft 420 kts 222°
2026-05-05 15:50 41.53692 -8.91581 35088 ft 419 kts 223°
2026-05-05 15:51 41.49036 -8.96266 35097 ft 419 kts 222°
2026-05-05 15:51 41.44383 -9.00936 35096 ft 419 kts 222°
2026-05-05 15:52 41.39725 -9.05594 35085 ft 418 kts 222°
2026-05-05 15:52 41.35078 -9.10235 35088 ft 417 kts 221°
2026-05-05 15:53 41.30438 -9.14872 35090 ft 417 kts 221°
2026-05-05 15:53 41.25803 -9.19493 35091 ft 416 kts 221°
2026-05-05 15:54 41.21164 -9.24101 35092 ft 416 kts 221°
2026-05-05 15:54 41.16532 -9.28706 35078 ft 416 kts 221°
2026-05-05 15:55 41.11900 -9.33302 35085 ft 416 kts 221°
2026-05-05 15:55 41.07261 -9.37881 35091 ft 416 kts 221°
2026-05-05 15:56 41.02624 -9.42453 35096 ft 416 kts 221°
2026-05-05 15:56 40.97983 -9.47021 35087 ft 416 kts 221°
2026-05-05 15:57 40.93351 -9.51585 35092 ft 415 kts 221°
2026-05-05 15:57 40.88726 -9.56128 35111 ft 414 kts 221°
2026-05-05 15:58 40.84107 -9.60650 35122 ft 413 kts 221°
2026-05-05 15:58 40.79495 -9.65158 35121 ft 412 kts 221°
2026-05-05 15:59 40.74889 -9.69652 35118 ft 412 kts 221°
2026-05-05 15:59 40.70286 -9.74144 35107 ft 411 kts 221°
2026-05-05 16:00 40.65716 -9.78596 35115 ft 411 kts 221°
2026-05-05 16:00 40.61119 -9.83068 35118 ft 411 kts 221°
2026-05-05 16:01 40.56525 -9.87524 35113 ft 410 kts 221°
2026-05-05 16:01 40.51926 -9.91973 35115 ft 410 kts 221°
2026-05-05 16:02 40.47330 -9.96416 35098 ft 410 kts 221°
2026-05-05 16:02 40.42737 -10.00848 35111 ft 409 kts 221°
2026-05-05 16:03 40.38149 -10.05263 35115 ft 409 kts 221°
2026-05-05 16:03 40.33566 -10.09670 35117 ft 409 kts 221°
2026-05-05 16:04 40.28977 -10.14069 35121 ft 409 kts 221°
2026-05-05 16:04 40.24388 -10.18468 35122 ft 409 kts 221°
2026-05-05 16:05 40.19797 -10.22853 35112 ft 409 kts 220°
2026-05-05 16:05 40.15207 -10.27232 35113 ft 409 kts 220°
2026-05-05 16:06 40.10608 -10.31607 35119 ft 409 kts 220°
2026-05-05 16:06 40.06009 -10.35979 35122 ft 409 kts 220°
2026-05-05 16:07 40.01409 -10.40347 35122 ft 409 kts 220°
2026-05-05 16:07 39.96814 -10.44712 35112 ft 409 kts 220°
2026-05-05 16:08 39.92217 -10.49069 35118 ft 409 kts 220°
2026-05-05 16:08 39.87618 -10.53414 35121 ft 409 kts 220°
2026-05-05 16:09 39.83014 -10.57757 35117 ft 409 kts 220°
2026-05-05 16:09 39.78413 -10.62100 35120 ft 409 kts 220°
2026-05-05 16:10 39.73807 -10.66434 35107 ft 409 kts 220°
2026-05-05 16:10 39.69194 -10.70760 35113 ft 409 kts 220°
2026-05-05 16:11 39.64581 -10.75082 35127 ft 409 kts 220°
2026-05-05 16:12 39.55363 -10.83682 35129 ft 409 kts 220°
2026-05-05 16:13 39.43823 -10.94439 35137 ft 408 kts 219°
2026-05-05 16:13 39.39210 -10.98719 35135 ft 408 kts 219°
2026-05-05 16:14 39.29982 -11.07279 35139 ft 409 kts 219°
2026-05-05 16:15 39.20759 -11.15779 35162 ft 405 kts 220°
2026-05-05 16:16 39.11618 -11.24210 35170 ft 403 kts 220°
2026-05-05 16:17 39.04769 -11.30483 35166 ft 402 kts 220°
2026-05-05 16:18 38.97938 -11.36733 35165 ft 400 kts 220°
2026-05-05 16:19 38.91152 -11.42941 35171 ft 398 kts 220°
2026-05-05 16:19 38.84375 -11.49109 35166 ft 398 kts 220°
2026-05-05 16:20 38.75359 -11.57287 35149 ft 396 kts 220°
2026-05-05 16:22 38.64144 -11.67451 35163 ft 395 kts 220°
2026-05-05 16:23 38.55210 -11.75500 35163 ft 394 kts 220°
2026-05-05 16:23 38.48499 -11.81552 35145 ft 394 kts 220°
2026-05-05 16:24 38.44009 -11.85580 35146 ft 394 kts 220°
2026-05-05 16:25 38.37269 -11.91616 35157 ft 395 kts 220°
2026-05-05 16:25 38.30519 -11.97646 35161 ft 395 kts 220°
2026-05-05 16:26 38.21511 -12.05674 35140 ft 396 kts 219°
2026-05-05 16:27 38.17002 -12.09697 35148 ft 396 kts 219°
2026-05-05 16:27 38.12490 -12.13710 35153 ft 396 kts 219°
2026-05-05 16:28 38.07998 -12.17683 35153 ft 396 kts 219°
2026-05-05 16:28 38.03474 -12.21685 35160 ft 396 kts 219°
2026-05-05 16:29 37.98945 -12.25685 35140 ft 397 kts 219°
2026-05-05 16:29 37.94412 -12.29682 35153 ft 397 kts 219°
2026-05-05 16:30 37.89874 -12.33681 35156 ft 397 kts 219°
2026-05-05 16:30 37.85336 -12.37683 35158 ft 398 kts 219°
2026-05-05 16:31 37.80795 -12.41680 35160 ft 398 kts 219°
2026-05-05 16:31 37.76248 -12.45662 35165 ft 398 kts 219°
2026-05-05 16:32 37.71699 -12.49648 35168 ft 398 kts 219°
2026-05-05 16:32 37.67152 -12.53628 35166 ft 398 kts 219°
2026-05-05 16:33 37.62599 -12.57596 35166 ft 397 kts 219°
2026-05-05 16:33 37.58051 -12.61555 35166 ft 397 kts 219°
2026-05-05 16:34 37.53540 -12.65490 35169 ft 397 kts 219°
2026-05-05 16:34 37.48995 -12.69450 35144 ft 397 kts 219°
2026-05-05 16:35 37.44440 -12.73399 35148 ft 398 kts 218°
2026-05-05 16:35 37.39879 -12.77351 35151 ft 398 kts 218°
2026-05-05 16:36 37.35320 -12.81307 35153 ft 399 kts 218°
2026-05-05 16:36 37.31523 -12.84591 35155 ft 399 kts 218°
2026-05-05 16:37 37.26948 -12.88539 35158 ft 399 kts 218°
2026-05-05 16:37 37.22363 -12.92479 35147 ft 400 kts 218°
2026-05-05 16:38 37.17777 -12.96419 35155 ft 400 kts 218°
2026-05-05 16:38 37.13188 -13.00366 35159 ft 400 kts 218°
2026-05-05 16:39 37.08596 -13.04310 35162 ft 400 kts 218°
2026-05-05 16:39 37.04000 -13.08254 35169 ft 400 kts 218°
2026-05-05 16:40 36.99402 -13.12184 35172 ft 400 kts 218°
2026-05-05 16:40 36.94803 -13.16107 35155 ft 400 kts 218°
2026-05-05 16:41 36.90205 -13.20023 35156 ft 400 kts 217°
2026-05-05 16:41 36.85599 -13.23931 35160 ft 400 kts 218°
2026-05-05 16:42 36.81001 -13.27848 35164 ft 400 kts 218°
2026-05-05 16:42 36.76403 -13.31765 35156 ft 400 kts 217°
2026-05-05 16:43 36.71794 -13.35667 35137 ft 400 kts 217°
2026-05-05 16:43 36.67193 -13.39568 35145 ft 400 kts 217°
2026-05-05 16:44 36.62585 -13.43468 35160 ft 400 kts 217°
2026-05-05 16:44 36.57934 -13.47288 35160 ft 401 kts 216°
2026-05-05 16:45 36.53217 -13.51010 35164 ft 402 kts 216°
2026-05-05 16:45 36.48527 -13.54704 35162 ft 402 kts 216°
2026-05-05 16:46 36.43819 -13.58445 35139 ft 402 kts 216°
2026-05-05 16:46 36.39109 -13.62186 35166 ft 402 kts 216°
2026-05-05 16:47 36.34402 -13.65925 35170 ft 402 kts 216°
2026-05-05 16:47 36.29699 -13.69664 35173 ft 402 kts 216°
2026-05-05 16:48 36.24994 -13.73393 35173 ft 402 kts 216°
2026-05-05 16:48 36.20282 -13.77117 35174 ft 402 kts 216°
2026-05-05 16:49 36.15571 -13.80835 35171 ft 401 kts 216°
2026-05-05 16:49 36.10862 -13.84539 35176 ft 401 kts 216°
2026-05-05 16:50 36.06154 -13.88245 35172 ft 401 kts 216°
2026-05-05 16:50 36.01445 -13.91951 35171 ft 401 kts 216°
2026-05-05 16:51 35.96731 -13.95654 35169 ft 402 kts 216°
2026-05-05 16:51 35.92017 -13.99349 35155 ft 402 kts 216°
2026-05-05 16:52 35.87294 -14.03030 35166 ft 401 kts 216°
2026-05-05 16:52 35.82580 -14.06707 35171 ft 401 kts 216°
2026-05-05 16:53 35.77873 -14.10386 35174 ft 401 kts 216°
2026-05-05 16:53 35.73171 -14.14061 35176 ft 400 kts 216°
2026-05-05 16:54 35.68465 -14.17726 35169 ft 400 kts 216°
2026-05-05 16:54 35.63755 -14.21376 35156 ft 400 kts 216°
2026-05-05 16:55 35.59075 -14.25005 35154 ft 401 kts 216°
2026-05-05 16:55 35.54358 -14.28662 35155 ft 401 kts 216°
2026-05-05 16:56 35.49633 -14.32317 35158 ft 402 kts 216°
2026-05-05 16:56 35.44902 -14.35972 35160 ft 402 kts 216°
2026-05-05 16:57 35.40169 -14.39627 35164 ft 402 kts 215°
2026-05-05 16:57 35.35430 -14.43284 35166 ft 403 kts 216°
2026-05-05 16:58 35.30672 -14.46935 35159 ft 404 kts 216°
2026-05-05 16:58 35.25909 -14.50599 35160 ft 405 kts 216°
2026-05-05 16:59 35.21134 -14.54264 35161 ft 405 kts 215°
2026-05-05 16:59 35.16354 -14.57928 35151 ft 406 kts 215°
2026-05-05 17:00 35.11569 -14.61592 35153 ft 406 kts 215°
2026-05-05 17:00 35.06776 -14.65252 35156 ft 407 kts 215°
2026-05-05 17:01 35.01974 -14.68910 35153 ft 407 kts 215°
2026-05-05 17:01 34.97170 -14.72578 35155 ft 407 kts 215°
2026-05-05 17:02 34.92358 -14.76235 35158 ft 407 kts 215°
2026-05-05 17:02 34.87551 -14.79885 35157 ft 407 kts 215°
2026-05-05 17:03 34.82738 -14.83533 35144 ft 407 kts 215°
2026-05-05 17:03 34.77931 -14.87180 35148 ft 407 kts 215°
2026-05-05 17:04 34.73120 -14.90816 35150 ft 407 kts 215°
2026-05-05 17:04 34.68312 -14.94451 35147 ft 407 kts 215°
2026-05-05 17:05 34.63497 -14.98084 35148 ft 407 kts 215°
2026-05-05 17:05 34.58678 -15.01705 35145 ft 407 kts 215°
2026-05-05 17:06 34.53866 -15.05330 35143 ft 407 kts 215°
2026-05-05 17:06 34.49051 -15.08948 35146 ft 407 kts 215°
2026-05-05 17:07 34.44239 -15.12564 35149 ft 407 kts 215°
2026-05-05 17:07 34.39457 -15.16145 35149 ft 407 kts 215°
2026-05-05 17:08 34.34637 -15.19737 35150 ft 407 kts 215°
2026-05-05 17:08 34.29824 -15.23338 35151 ft 407 kts 215°
2026-05-05 17:09 34.25013 -15.26938 35136 ft 406 kts 215°
2026-05-05 17:09 34.20207 -15.30518 35145 ft 406 kts 215°
2026-05-05 17:10 34.15402 -15.34104 35152 ft 406 kts 215°
2026-05-05 17:10 34.10589 -15.37675 35160 ft 407 kts 215°
2026-05-05 17:11 34.08185 -15.39457 35008 ft 404 kts 215°
2026-05-05 17:11 34.05819 -15.41209 34764 ft 394 kts 215°
2026-05-05 17:11 34.03509 -15.42918 34521 ft 385 kts 215°
2026-05-05 17:11 34.01248 -15.44594 34240 ft 379 kts 215°
2026-05-05 17:12 33.99012 -15.46252 33772 ft 376 kts 216°
2026-05-05 17:12 33.96812 -15.47896 33494 ft 367 kts 216°
2026-05-05 17:12 33.94664 -15.49487 33266 ft 358 kts 216°
2026-05-05 17:12 33.92551 -15.51046 32892 ft 354 kts 216°
2026-05-05 17:13 33.90464 -15.52584 32474 ft 350 kts 215°
2026-05-05 17:13 33.88392 -15.54113 32063 ft 348 kts 215°
2026-05-05 17:13 33.86340 -15.55628 31640 ft 345 kts 215°
2026-05-05 17:13 33.84295 -15.57134 31107 ft 346 kts 215°
2026-05-05 17:14 33.82241 -15.58646 30682 ft 344 kts 215°
2026-05-05 17:14 33.80212 -15.60138 30325 ft 340 kts 215°
2026-05-05 17:14 33.78202 -15.61616 29924 ft 337 kts 215°
2026-05-05 17:14 33.76248 -15.63058 29547 ft 332 kts 215°
2026-05-05 17:15 33.74266 -15.64518 29177 ft 328 kts 215°
2026-05-05 17:15 33.72335 -15.65938 28799 ft 324 kts 216°
2026-05-05 17:15 33.70452 -15.67323 28442 ft 320 kts 216°
2026-05-05 17:15 33.68566 -15.68708 28077 ft 316 kts 216°
2026-05-05 17:16 33.66698 -15.70078 27696 ft 313 kts 216°
2026-05-05 17:16 33.64845 -15.71436 27322 ft 310 kts 216°
2026-05-05 17:16 33.63010 -15.72779 26948 ft 308 kts 216°
2026-05-05 17:16 33.61188 -15.74111 26564 ft 306 kts 216°
2026-05-05 17:17 33.59376 -15.75437 26192 ft 304 kts 216°
2026-05-05 17:17 33.57574 -15.76757 25791 ft 303 kts 216°
2026-05-05 17:17 33.55807 -15.78126 25390 ft 301 kts 222°
2026-05-05 17:17 33.54270 -15.79797 24998 ft 297 kts 228°
2026-05-05 17:18 33.52799 -15.81537 24604 ft 297 kts 228°
2026-05-05 17:18 33.51324 -15.83276 24210 ft 297 kts 228°
2026-05-05 17:18 33.49846 -15.85012 23818 ft 298 kts 228°
2026-05-05 17:18 33.48364 -15.86748 23373 ft 298 kts 227°
2026-05-05 17:19 33.46884 -15.88478 22970 ft 297 kts 227°
2026-05-05 17:19 33.45409 -15.90199 22594 ft 295 kts 227°
2026-05-05 17:19 33.43942 -15.91912 22209 ft 294 kts 227°
2026-05-05 17:19 33.42485 -15.93618 21834 ft 292 kts 228°
2026-05-05 17:20 33.41037 -15.95315 21467 ft 291 kts 228°
2026-05-05 17:20 33.39593 -15.97005 21094 ft 290 kts 227°
2026-05-05 17:20 33.38152 -15.98689 20733 ft 289 kts 227°
2026-05-05 17:20 33.36710 -16.00367 20368 ft 289 kts 227°
2026-05-05 17:21 33.35261 -16.02053 19898 ft 293 kts 227°
2026-05-05 17:21 33.33800 -16.03757 19514 ft 294 kts 227°
2026-05-05 17:21 33.32339 -16.05464 19149 ft 294 kts 227°
2026-05-05 17:22 33.29411 -16.08879 18446 ft 294 kts 227°
2026-05-05 17:22 33.27946 -16.10583 18054 ft 294 kts 227°
2026-05-05 17:22 33.26485 -16.12283 17720 ft 293 kts 227°
2026-05-05 17:22 33.25027 -16.13977 17375 ft 293 kts 227°
2026-05-05 17:23 33.23568 -16.15673 17033 ft 292 kts 227°
2026-05-05 17:23 33.22116 -16.17360 16700 ft 291 kts 227°
2026-05-05 17:23 33.20671 -16.19040 16371 ft 290 kts 227°
2026-05-05 17:23 33.19715 -16.20152 16145 ft 289 kts 227°
2026-05-05 17:24 33.18281 -16.21815 15965 ft 284 kts 228°
2026-05-05 17:24 33.16417 -16.23973 15863 ft 281 kts 227°
2026-05-05 17:24 33.15017 -16.25596 15792 ft 282 kts 227°
2026-05-05 17:24 33.13613 -16.27221 15719 ft 280 kts 228°
2026-05-05 17:25 33.12668 -16.28314 15671 ft 280 kts 227°
2026-05-05 17:25 33.11744 -16.29383 15616 ft 278 kts 227°
2026-05-05 17:25 33.09882 -16.31536 15513 ft 279 kts 227°
2026-05-05 17:25 33.08488 -16.33149 15439 ft 280 kts 227°
2026-05-05 17:26 33.07091 -16.34762 15366 ft 278 kts 227°
2026-05-05 17:26 33.05698 -16.36370 15290 ft 278 kts 228°
2026-05-05 17:26 33.04313 -16.37972 15198 ft 278 kts 226°
2026-05-05 17:26 33.02941 -16.39557 15118 ft 278 kts 226°
2026-05-05 17:27 33.01546 -16.41166 15054 ft 279 kts 226°
2026-05-05 17:27 33.00153 -16.42773 14983 ft 279 kts 227°
2026-05-05 17:27 32.98762 -16.44376 14905 ft 278 kts 228°
2026-05-05 17:27 32.97375 -16.45973 14829 ft 278 kts 227°
2026-05-05 17:28 32.95986 -16.47571 14758 ft 278 kts 226°
2026-05-05 17:28 32.94591 -16.49178 14691 ft 278 kts 227°
2026-05-05 17:28 32.93200 -16.50778 14617 ft 278 kts 228°
2026-05-05 17:28 32.91801 -16.52355 14544 ft 277 kts 226°
2026-05-05 17:29 32.90383 -16.53883 14468 ft 271 kts 224°
2026-05-05 17:29 32.88993 -16.55348 14393 ft 263 kts 224°
2026-05-05 17:29 32.87649 -16.56762 14320 ft 257 kts 224°
2026-05-05 17:29 32.86312 -16.58173 14249 ft 256 kts 226°
2026-05-05 17:30 32.85026 -16.59614 14164 ft 252 kts 235°
2026-05-05 17:30 32.84276 -16.61456 14100 ft 246 kts 262°
2026-05-05 17:30 32.84309 -16.63459 14030 ft 245 kts 286°
2026-05-05 17:30 32.85087 -16.65260 13957 ft 249 kts 311°
2026-05-05 17:31 32.86475 -16.66472 13883 ft 250 kts 336°
2026-05-05 17:31 32.88199 -16.66815 13809 ft 258 kts
2026-05-05 17:31 32.89914 -16.66150 13726 ft 266 kts 30°
2026-05-05 17:31 32.91341 -16.64725 13653 ft 270 kts 39°
2026-05-05 17:32 32.92725 -16.63208 13570 ft 271 kts 38°
2026-05-05 17:32 32.94107 -16.61682 13484 ft 270 kts 40°
2026-05-05 17:32 32.95480 -16.60164 13412 ft 270 kts 41°
2026-05-05 17:32 32.96594 -16.58365 13326 ft 275 kts 67°
2026-05-05 17:33 32.96847 -16.56124 13250 ft 276 kts 99°
2026-05-05 17:33 32.96143 -16.54042 13165 ft 274 kts 130°
2026-05-05 17:33 32.94678 -16.52641 13087 ft 269 kts 160°
2026-05-05 17:33 32.92879 -16.52263 13006 ft 262 kts 191°
2026-05-05 17:34 32.91185 -16.52918 12928 ft 255 kts 216°
2026-05-05 17:34 32.89820 -16.54243 12855 ft 253 kts 226°
2026-05-05 17:34 32.88517 -16.55653 12768 ft 253 kts 227°
2026-05-05 17:34 32.87230 -16.57073 12696 ft 252 kts 227°
2026-05-05 17:35 32.85948 -16.58496 12618 ft 253 kts 226°
2026-05-05 17:35 32.84773 -16.60020 12536 ft 249 kts 242°
2026-05-05 17:35 32.84236 -16.61950 12456 ft 247 kts 268°
2026-05-05 17:35 32.84485 -16.63923 12376 ft 243 kts 294°
2026-05-05 17:36 32.85449 -16.65561 12303 ft 243 kts 319°
2026-05-05 17:36 32.86936 -16.66520 12220 ft 248 kts 345°